This is the latest recevied weather packets stored in our database for station/object LU4EGV-13. If no packets are shown the sender has not sent any weather packets the latest 10 day(s).
| Time | Temp. | Humidity | Pressure | Rain* | Wind** | Luminosity | Snow |
|---|---|---|---|---|---|---|---|
| 1777825201 | 18.33° C | 40% | 1018 hPa | 0 mm | - | - | - |
| 1777824594 | 17.78° C | 40% | 1018.1 hPa | 0 mm | - | - | - |
| 1777823989 | 17.22° C | 40% | 1018.2 hPa | 0 mm | - | - | - |
| 1777823383 | 18.33° C | 40% | 1018.4 hPa | 0 mm | - | - | - |
| 1777822776 | 17.78° C | 40% | 1018.5 hPa | 0 mm | - | - | - |
| 1777822170 | 17.78° C | 39% | 1018.8 hPa | 0 mm | - | - | - |
| 1777821564 | 17.22° C | 40% | 1018.9 hPa | 0 mm | - | - | - |
| 1777820958 | 17.78° C | 40% | 1019.1 hPa | 0 mm | - | - | - |
| 1777820352 | 17.78° C | 38% | 1019.3 hPa | 0 mm | - | - | - |
| 1777819746 | 17.78° C | 39% | 1019.5 hPa | 0 mm | - | - | - |
| 1777819139 | 17.78° C | 39% | 1019.5 hPa | 0 mm | - | - | - |
| 1777818532 | 16.67° C | 40% | 1020 hPa | 0 mm | - | - | - |
| 1777817927 | 17.22° C | 40% | 1020.2 hPa | 0 mm | - | - | - |
| 1777817320 | 17.22° C | 46% | 1020.2 hPa | 0 mm | - | - | - |
| 1777816715 | 16.11° C | 46% | 1020.3 hPa | 0 mm | - | - | - |
| 1777816109 | 16.11° C | 43% | 1020.3 hPa | 0 mm | - | - | - |
| 1777815502 | 16.11° C | 44% | 1020.3 hPa | 0 mm | - | - | - |
| 1777814910 | 16.11° C | 42% | 1020.2 hPa | 0 mm | - | - | - |
| 1777814290 | 15.56° C | 41% | 1020.5 hPa | 0 mm | - | - | - |
| 1777813684 | 16.11° C | 41% | 1020.7 hPa | 0 mm | - | - | - |
| 1777813078 | 15.56° C | 46% | 1020.7 hPa | 0 mm | - | - | - |
| 1777812471 | 15° C | 55% | 1020.8 hPa | 0 mm | - | - | - |
| 1777811866 | 14.44° C | 66% | 1020.8 hPa | 0 mm | - | - | - |
| 1777811259 | 12.78° C | 76% | 1020.7 hPa | 0 mm | - | - | - |
| 1777810652 | 9.44° C | 83% | 1020.9 hPa | 0 mm | - | - | - |
* Rain latest hour (hover to see other rain measurements)
** Current wind speed in m/s (hover to see current wind gust speed)